Location: Newark
(52.3500°N, 175.9667°E)
Time: 22:04:56
(UTC+00:00)

Transit 4A - Pass Details

Date: 20 April 2021
Orbit: 871 x 974 km, 66.8° (Epoch: 16 May)

Event Time Altitude Azimuth Distance (km) Brightness Sun altitude
Rises 11:11:39 0° 189° (S) 3,624 - -24.5°
Reaches altitude 10° 11:14:21 10° 182° (S) 2,669 - -24.6°
Maximum altitude 11:20:03 39° 115° (ESE) 1,370 - -24.9°
Exits shadow 11:20:26 39° 106° (ESE) 1,378 8.5 -24.9°
Drops below altitude 10° 11:25:38 10° 49° (NE) 2,619 10.6 -25.1°
Sets 11:28:16 0° 42° (NE) 3,549 11.4 -25.2°
